EW2821 Weather Reports


Display with metric or nautical units.
time (UTC)temp
F
wind
direction
speed
MPH
gust
MPH
rain 1hr
in
rain 24hr
in
rain mn
in
humidity
%
barometer
mb
20260507073015 34 289 0.0 2.0 0.00 0.01 0.00 95 1014.5
20260507071514 34 289 0.0 0.0 0.00 0.01 0.00 95 1014.5
20260507070013 35 289 0.0 0.0 0.00 0.01 0.00 95 1014.6
20260507064511 35 289 0.0 2.0 0.00 0.02 0.00 94 1014.7
20260507063011 35 289 0.0 0.0 0.00 0.02 0.00 94 1014.7
20260507061508 36 289 0.0 0.0 0.00 0.02 0.00 94 1014.8
20260507060018 36 289 0.0 0.0 0.00 0.05 0.00 94 1014.8
20260507054509 36 289 0.0 0.0 0.00 0.05 0.00 94 1014.7
20260507053006 36 289 0.0 0.0 0.00 0.05 0.00 94 1014.7
20260507051506 37 289 0.0 0.0 0.00 0.05 0.00 94 1014.6
20260507050002 37 289 0.0 0.0 0.00 0.11 0.00 94 1014.7
20260507044602 37 289 0.0 0.0 0.00 0.11 0.00 93 1014.6
20260507043103 37 289 0.0 0.0 0.00 0.11 0.00 93 1014.6
20260507041557 37 289 0.0 0.0 0.00 0.11 0.00 93 1014.6
20260507040055 37 289 0.0 0.0 0.00 0.11 0.00 92 1014.6
20260507034555 38 289 0.0 0.0 0.00 0.21 0.11 92 1014.6
20260507033052 39 289 0.0 0.0 0.00 0.21 0.11 92 1014.7
20260507031550 39 289 0.0 0.0 0.00 0.21 0.11 92 1014.6
20260507030048 40 289 0.0 0.0 0.00 0.21 0.11 91 1014.6
20260507024559 40 289 0.0 0.0 0.00 0.25 0.11 90 1014.6
20260507023045 41 289 0.0 0.0 0.00 0.25 0.11 90 1014.6
20260507021544 41 289 0.0 0.0 0.00 0.25 0.11 89 1014.6
20260507014549 43 289 0.0 0.0 0.00 0.31 0.11 84 1014.4
20260507013045 45 289 0.0 0.0 0.00 0.31 0.11 83 1014.2
20260507011537 46 289 0.0 0.0 0.00 0.31 0.11 80 1014.0
20260507010035 48 289 0.0 0.0 0.00 0.31 0.11 77 1013.9
20260507004539 49 291 1.0 2.0 0.00 0.40 0.11 72 1013.7
20260507003033 50 292 2.0 4.0 0.00 0.40 0.11 71 1013.6
20260507001534 51 297 5.0 9.0 0.00 0.40 0.11 69 1013.5
20260507000032 52 296 3.0 8.0 0.00 0.40 0.11 67 1013.4
20260506234537 53 310 4.0 8.0 0.00 0.47 0.11 64 1013.2
20260506233032 53 290 5.0 9.0 0.00 0.47 0.11 65 1013.4
20260506231543 54 272 4.0 11.0 0.00 0.47 0.11 63 1013.3
20260506230034 55 304 6.0 11.0 0.00 0.47 0.11 63 1013.4
20260506224530 53 296 4.0 7.0 0.00 0.52 0.11 68 1013.5
20260506223043 53 300 4.0 11.0 0.00 0.52 0.11 68 1013.7
20260506221528 53 299 6.0 9.0 0.00 0.52 0.11 66 1013.8
20260506220028 53 268 2.0 7.0 0.00 0.52 0.11 66 1013.7
20260506214527 53 285 4.0 9.0 0.00 0.54 0.11 64 1013.6
20260506213029 53 301 5.0 8.0 0.00 0.54 0.11 64 1013.4
20260506211535 53 291 6.0 11.0 0.00 0.54 0.11 64 1013.5
20260506210030 54 331 5.0 9.0 0.00 0.54 0.11 62 1013.4
20260506204524 54 266 6.0 9.0 0.00 0.60 0.11 59 1013.2
20260506203028 54 278 5.0 13.0 0.00 0.60 0.11 60 1013.3
20260506201532 54 340 8.0 14.0 0.00 0.60 0.11 62 1013.4
20260506200022 54 308 4.0 12.0 0.00 0.60 0.11 61 1013.5
20260506194527 54 318 8.0 12.0 0.00 0.70 0.11 61 1013.4
20260506193020 54 278 5.0 9.0 0.00 0.70 0.11 61 1013.2
20260506191519 54 336 4.0 8.0 0.00 0.70 0.11 67 1013.1
20260506190018 54 309 4.0 9.0 0.00 0.70 0.11 66 1013.3
20260506184515 53 303 2.0 9.0 0.00 0.76 0.11 65 1013.3
20260506183026 53 263 2.0 6.0 0.00 0.76 0.11 64 1013.4
20260506181513 53 293 5.0 9.0 0.00 0.76 0.11 61 1013.4
20260506180014 53 293 5.0 9.0 0.00 0.76 0.11 62 1013.3
20260506174512 53 346 1.0 5.0 0.00 0.79 0.11 65 1013.3
20260506173011 52 293 3.0 8.0 0.00 0.79 0.11 65 1013.8
20260506171510 53 301 3.0 9.0 0.00 0.79 0.11 67 1013.6
20260506170011 53 275 3.0 9.0 0.00 0.79 0.11 66 1013.5
20260506164508 53 332 2.0 12.0 0.00 0.79 0.11 67 1013.1
20260506163008 53 317 5.0 12.0 0.00 0.79 0.11 67 1013.4
20260506161508 53 292 5.0 12.0 0.00 0.79 0.11 67 1013.5
20260506160008 53 293 7.0 10.0 0.00 0.79 0.11 66 1013.4
20260506154503 53 35 5.0 12.0 0.00 0.79 0.11 68 1013.4
20260506153001 52 332 4.0 15.0 0.00 0.79 0.11 71 1013.1
20260506151558 52 308 9.0 12.0 0.00 0.79 0.11 69 1013.1
20260506150155 52 326 5.0 11.0 0.00 0.79 0.11 74 1013.1
20260506144603 51 325 4.0 12.0 0.00 0.79 0.11 74 1012.8
20260506143049 50 323 9.0 12.0 0.00 0.79 0.11 70 1012.7
20260506141545 50 303 7.0 13.0 0.00 0.79 0.11 74 1012.5
20260506140044 49 333 6.0 11.0 0.00 0.79 0.11 76 1012.6
20260506134537 48 326 8.0 11.0 0.00 0.79 0.11 79 1012.6
20260506133033 48 284 5.0 10.0 0.00 0.79 0.11 81 1012.5
20260506131534 47 291 5.0 8.0 0.00 0.79 0.11 84 1012.5
20260506130025 46 295 4.0 7.0 0.00 0.79 0.11 85 1012.4
20260506124523 45 334 2.0 6.0 0.00 0.79 0.11 89 1012.2
20260506123023 44 321 3.0 6.0 0.00 0.79 0.11 91 1012.0
20260506121522 43 295 3.0 7.0 0.00 0.79 0.11 93 1012.0
20260506120013 43 314 2.0 5.0 0.00 0.79 0.11 93 1011.5
20260506114509 43 322 2.0 5.0 0.00 0.79 0.11 93 1010.9
20260506113016 42 308 1.0 5.0 0.00 0.79 0.11 94 1011.0
20260506111503 42 314 2.0 5.0 0.00 0.79 0.11 94 1010.7
20260506110100 42 339 1.0 3.0 0.00 0.79 0.11 94 1010.1
20260506104601 42 340 1.0 2.0 0.00 0.79 0.11 94 1010.1
20260506103119 42 340 1.0 4.0 0.00 0.79 0.11 94 1010.3
20260506101555 42 338 1.0 5.0 0.00 0.79 0.11 94 1010.0
20260506100055 42 356 2.0 6.0 0.00 0.79 0.11 93 1009.6
20260506094603 41 10 3.0 4.0 0.00 0.80 0.11 93 1009.7
20260506093054 41 10 3.0 6.0 0.00 0.80 0.11 93 1009.4
20260506091559 42 353 1.0 5.0 0.00 0.80 0.11 93 1009.3
20260506090056 41 326 2.0 6.0 0.00 0.80 0.11 93 1009.6
20260506084612 41 335 3.0 8.0 0.00 0.96 0.11 93 1009.3
20260506083051 41 5 1.0 5.0 0.00 0.96 0.11 93 1009.1
20260506081550 41 320 2.0 6.0 0.01 0.96 0.11 93 1009.2